ECMWFNIL_con_mucape_093.txt.gz
CAPE
585 548 489 412 493 422 496 371 363 424 583 526 399 410 364 315 350 356 290 322 453 500 479 530 574 512 427 410 475 372 384 466 413 448 613 726 968 933 716 683 487 749
545 460 397 373 384 402 359 372 353 423 530 506 399 362 413 502 476 328 420 522 491 517 606 591 503 391 425 421 408 361 361 464 452 325 378 362 315 343 543 629 441 431
389 380 394 346 337 280 313 334 292 358 531 460 431 357 461 572 516 494 517 568 585 643 598 558 507 509 543 451 457 443 508 707 606 451 432 429 344 369 728 710 510 461
376 386 387 378 340 321 300 247 338 457 567 511 480 378 557 432 540 622 665 701 667 599 651 603 552 561 568 543 555 548 469 456 451 442 654 691 425 670 968 994 809 641
470 468 413 368 499 295 206 240 312 414 452 511 453 411 444 432 512 690 718 686 601 626 604 563 586 574 578 556 522 539 487 392 384 672 910 909 810 920 1027 1047 1070 1084
384 352 390 323 359 404 246 251 399 488 417 455 471 482 589 545 738 683 778 731 635 553 535 556 608 497 490 593 595 550 427 502 629 931 1168 1225 1058 971 768 993 1116 1125
516 380 389 376 476 515 434 388 520 493 459 463 537 553 648 745 621 653 683 706 595 590 602 600 620 703 638 425 306 449 537 979 971 1018 1008 1194 1108 1002 900 1069 998 943
458 320 271 276 29 273 397 489 485 457 469 489 535 648 600 686 566 600 602 608 661 704 662 624 764 741 558 430 512 560 973 1182 1211 1092 906 1129 1295 1167 1185 1125 1393 1229
233 331 452 431 409 427 470 495 520 512 560 599 667 658 602 619 622 538 627 686 712 720 694 860 865 791 766 749 790 805 1000 1070 1115 922 955 1237 1332 1184 1062 1111 1229 1265
299 318 317 486 605 496 548 460 538 486 451 624 682 632 760 684 557 537 630 667 641 618 657 731 830 891 912 1126 1146 1054 930 916 1026 1044 984 1028 1068 1298 1147 1171 1255 1257
103 375 509 578 555 524 422 353 359 430 578 717 623 711 655 626 532 524 572 496 501 535 600 683 754 741 786 868 974 1020 885 972 922 912 1043 932 1213 1221 1165 1179 1217 1198
178 417 614 579 611 562 509 420 356 456 538 678 694 656 712 604 465 440 406 384 216 324 469 626 611 678 739 709 646 726 900 993 944 1000 892 803 900 995 1071 1181 1116 1114
285 366 485 553 529 530 526 540 441 410 470 572 626 680 680 530 454 436 332 268 225 174 403 501 512 544 608 568 503 548 648 650 585 554 508 560 635 774 864 952 1089 1049
276 336 394 485 466 470 497 565 520 416 426 485 572 654 677 526 445 371 399 337 300 84 235 207 306 274 289 375 359 354 328 347 342 336 317 367 397 418 559 652 721 897
152 244 307 339 366 373 464 482 519 504 498 551 622 626 666 636 425 360 386 348 250 192 134 52 57 109 138 190 145 130 192 165 189 219 259 280 242 232 250 371 414 439
169 162 76 161 265 255 264 364 394 541 523 488 532 536 634 580 234 334 320 235 163 168 163 0 0 0 0 0 14 80 102 104 169 204 218 260 236 220 258 326 356 355
163 64 50 84 94 2 173 264 162 274 416 383 377 481 543 391 134 226 196 130 127 54 0 0 0 70 58 72 0 0 94 132 131 165 228 285 289 237 300 348 283 192
81 1 34 36 25 63 40 51 118 231 384 418 335 428 338 198 102 149 141 36 21 0 0 0 0 68 90 0 0 0 20 160 197 190 224 274 271 266 310 304 264 195
1 1 0 1 11 18 45 36 28 177 339 292 332 337 249 177 137 77 33 0 0 0 0 0 43 78 77 0 0 0 0 81 178 211 246 274 233 285 281 204 186 144
1 1 1 2 2 46 40 81 58 179 309 332 287 210 155 86 18 0 8 12 0 0 18 27 43 44 38 8 0 0 0 39 202 250 265 246 289 213 166 131 178 138
2 1 2 2 1 6 17 82 129 138 48 43 88 111 68 23 2 26 66 86 75 10 35 3 48 46 35 14 0 0 3 55 190 186 176 209 187 228 208 190 191 212
1 2 1 2 1 1 38 50 112 67 64 31 40 40 50 27 13 27 43 59 72 75 76 52 57 63 45 21 0 0 50 121 126 133 134 118 105 90 26 86 8 7
1 2 2 2 0 1 10 8 20 48 41 35 34 25 23 22 12 26 39 63 40 21 78 75 87 83 65 20 17 50 88 105 113 99 83 94 102 97 80 15 37 10
2 2 2 2 1 1 1 1 1 0 0 8 7 8 4 15 53 64 61 60 63 64 91 100 98 88 58 47 58 72 95 111 104 96 96 108 123 138 64 0 6 0
1 2 2 1 1 8 2 2 1 3 4 3 7 8 12 14 30 47 44 61 49 52 68 75 89 53 72 78 72 77 85 78 74 59 70 0 0 0 32 0 0 1
1 2 2 2 1 7 2 5 1 1 0 0 1 0 3 19 14 21 45 44 41 46 74 85 79 108 136 155 126 121 78 0 0 0 0 0 0 0 0 0 0 0

ECMWFNIL_con_mucape_096.txt.gz
CAPE
1202 1205 1245 1148 1000 978 1195 1378 1308 1038 994 1025 999 1031 1040 972 587 638 906 334 391 279 493 267 459 487 349 402 433 722 381 572 898 538 514 543 477 203 188 548 378 316
1237 1166 1050 1080 1091 1061 983 1149 1352 1270 1090 1143 1007 937 978 910 637 677 372 304 314 348 520 349 343 242 406 483 539 449 591 576 714 365 332 227 228 362 234 119 464 335
1064 1186 1107 1155 1210 1309 1254 1153 1223 1295 1100 1065 1085 1003 1020 750 528 541 462 404 407 360 334 373 409 451 462 539 489 562 450 601 686 594 477 264 305 237 460 316 427 1365
1011 1145 1163 1173 1213 1246 1384 1383 1313 1199 1136 1094 755 889 942 628 377 339 379 361 488 634 390 477 480 687 535 459 651 523 750 832 540 589 463 359 581 888 1098 834 913 855
1062 1030 1018 1070 1066 1166 1275 1183 1310 1328 1232 1076 986 903 749 426 280 272 379 695 810 843 606 474 622 983 859 581 715 633 405 388 435 395 266 149 632 983 989 904 383 1213
983 1018 1008 1001 936 962 1024 693 742 1074 1044 1048 1103 954 680 390 393 294 366 525 511 688 584 435 498 434 569 371 908 1064 1164 1060 1124 1086 637 385 518 707 590 485 506 1019
992 1174 1331 1301 1064 989 939 696 763 891 867 963 852 918 656 395 454 418 369 420 524 481 515 483 569 538 487 634 367 734 971 1134 980 1091 647 701 481 798 634 715 596 367
881 966 1148 977 1060 1081 861 768 686 818 858 685 739 857 799 716 679 703 409 590 468 538 964 569 448 697 882 965 1021 1267 1343 972 1118 1035 749 628 844 930 1038 730 811 620
671 781 776 793 872 901 760 570 900 954 762 688 691 780 926 1126 1048 682 493 460 551 627 847 839 978 1029 990 981 819 1353 1128 1037 648 698 684 972 1218 1271 1048 993 937 845
593 390 472 600 660 858 968 485 988 927 777 652 716 961 1024 747 510 488 439 426 501 527 578 470 773 1060 857 624 970 1234 1342 1170 743 454 443 881 1182 1266 1251 1322 1288 1118
394 424 516 518 644 584 810 1024 1067 1040 671 609 615 982 876 706 640 593 699 513 550 507 390 473 650 564 625 894 496 482 403 282 232 249 400 534 917 1247 1140 1416 1285 1184
327 347 577 528 549 551 566 854 1141 940 702 564 616 840 662 611 483 647 730 986 761 577 448 545 380 666 648 599 891 572 435 317 252 371 451 409 975 969 849 1220 1457 1206
41 370 445 594 499 484 674 568 638 756 646 791 741 823 851 979 756 649 520 696 774 557 345 520 396 622 764 938 654 475 372 305 407 517 557 445 435 977 1152 1371 1382 1325
28 342 448 537 567 380 412 529 502 436 570 508 581 573 952 1020 1020 820 695 626 424 364 456 459 438 533 975 722 483 340 262 372 517 540 397 463 475 840 1158 1354 1410 1320
126 336 375 331 446 395 334 328 398 417 388 412 477 538 408 417 683 528 475 347 184 335 247 441 652 887 566 481 439 209 221 364 406 324 252 332 431 474 968 1431 1462 1471
232 243 132 165 252 141 149 215 162 150 240 267 298 378 432 338 390 513 384 156 111 134 94 366 755 470 267 0 1 163 217 190 270 217 178 222 276 300 566 980 1475 1064
5 6 8 41 64 44 31 21 115 166 252 260 145 236 374 293 363 365 383 228 99 76 127 145 45 0 0 0 0 0 90 174 148 138 119 121 190 292 490 679 663 350
4 2 2 3 4 4 4 5 5 100 193 242 85 241 301 322 288 340 318 212 153 30 26 10 0 0 0 0 0 0 80 190 114 73 145 187 269 305 426 518 484 388
2 1 1 1 2 2 2 2 2 0 168 255 236 237 254 243 171 219 275 231 75 0 0 0 7 77 61 77 15 0 0 168 46 128 176 224 307 301 356 466 437 466
3 1 1 1 1 1 0 1 2 2 78 73 44 158 156 205 84 132 143 60 21 22 30 70 41 97 78 8 0 0 0 168 131 323 355 502 527 578 676 526 451 449
2 1 1 1 0 0 0 0 5 4 10 4 4 16 91 83 32 8 33 22 28 36 39 71 109 111 73 18 0 0 85 347 970 1012 892 824 609 451 410 361 363 350
2 1 1 0 0 0 0 0 3 6 14 14 16 2 10 6 15 46 61 58 36 33 50 86 103 85 51 28 34 58 215 706 800 576 507 378 268 220 208 271 270 562
1 0 0 1 1 1 2 2 2 1 1 22 12 1 16 30 50 36 18 18 22 27 38 69 86 107 72 32 33 78 168 314 209 103 115 162 163 15 0 81 18 23
1 0 0 0 1 1 0 1 1 1 1 1 4 9 14 10 1 22 41 29 22 55 82 66 46 75 112 79 53 61 61 72 108 137 197 134 100 29 0 0 0 55
1 1 0 0 0 1 0 0 1 1 1 0 1 2 2 3 22 22 30 40 51 66 76 85 89 104 85 62 74 108 93 106 123 120 39 18 0 0 0 0 0 8
0 1 0 0 0 0 0 0 0 0 0 0 0 1 2 9 7 9 0 20 41 46 58 73 88 75 56 81 103 102 115 124 92 10 16 95 72 2 53 1 0 0

ECMWFNIL_con_mucape_102.txt.gz
CAPE
1251 1259 1237 1137 1105 1031 1056 1150 1244 1270 1336 1252 1289 1104 1308 995 842 707 500 425 605 880 1088 1023 876 834 737 703 641 592 495 467 462 348 297 335 340 485 421 272 370 502
1204 1245 1273 1281 1175 1170 1327 1314 1291 1471 1435 1447 1326 1190 1085 1011 829 555 429 395 470 512 605 745 937 851 786 581 685 422 457 460 406 396 327 346 326 358 498 526 392 454
767 915 1031 1191 1232 1167 1235 1171 1146 1227 1124 941 965 1145 954 826 792 529 464 377 367 426 492 679 800 855 550 548 452 452 411 417 402 264 266 335 277 369 331 352 392 392
596 668 761 862 1050 1100 1109 1079 1013 1038 957 766 702 766 686 664 551 591 416 532 544 569 594 562 730 629 610 531 421 398 433 415 386 348 310 323 171 214 304 382 412 398
427 592 661 744 871 1049 1146 1075 1187 1242 1093 919 832 846 698 674 573 439 394 429 498 418 467 556 683 704 553 411 522 363 193 341 358 281 324 272 202 280 354 351 367 372
362 346 551 672 770 884 1007 1038 986 953 1000 899 751 738 701 525 445 414 437 443 415 449 386 558 639 557 630 650 438 222 267 229 224 205 170 182 203 205 456 383 427 439
219 354 477 552 715 845 936 940 910 902 973 936 862 769 440 382 371 436 386 311 231 395 450 494 546 590 530 480 341 282 185 208 254 200 173 151 248 320 404 342 418 482
169 214 338 557 806 895 770 653 822 798 840 807 710 675 679 708 492 330 236 276 462 438 520 615 574 566 510 473 376 367 388 407 166 191 358 210 227 291 421 258 341 458
118 174 374 685 804 781 830 890 753 687 809 679 646 673 689 465 486 477 476 354 385 437 359 402 425 551 529 537 454 391 514 362 346 424 331 396 280 219 366 332 372 395
63 207 505 594 593 636 699 667 686 743 776 577 632 520 443 397 427 440 431 449 352 385 516 497 371 583 580 547 561 554 486 428 418 350 354 250 290 223 288 361 236 238
50 128 267 251 447 511 546 556 586 554 595 471 560 423 381 522 523 348 366 466 434 463 429 509 508 504 621 562 524 488 392 448 429 340 361 360 402 398 198 274 283 375
18 3 2 25 9 36 108 207 288 264 371 369 347 328 302 542 553 429 408 462 394 452 422 395 624 608 525 538 497 491 442 498 552 495 421 343 503 368 448 403 484 505
10 10 3 1 0 2 8 69 11 79 186 185 251 314 309 291 322 347 316 391 341 353 381 541 597 489 424 434 431 395 395 499 487 381 425 308 196 316 449 410 277 344
10 6 3 0 1 2 2 2 2 2 1 3 6 86 291 313 314 256 174 243 310 327 367 466 517 416 421 396 307 344 317 350 551 502 400 397 292 323 409 374 222 185
6 3 2 1 0 0 2 2 2 1 1 1 1 3 10 24 252 135 129 128 118 159 205 222 363 376 306 198 120 122 106 179 213 236 282 248 315 614 367 356 525 494
2 1 1 1 1 0 1 1 0 1 1 0 1 1 2 4 4 22 69 107 180 146 200 216 168 158 168 136 60 45 28 56 348 254 287 320 184 121 373 383 206 202
0 0 0 1 0 2 0 0 0 1 1 0 0 0 0 1 1 143 115 114 104 112 218 219 143 83 40 86 85 0 15 27 645 531 212 38 120 156 106 318 259 249
1 0 0 0 1 0 1 0 0 1 1 1 1 1 1 1 1 4 61 62 86 81 94 61 33 47 31 35 48 37 25 71 40 40 113 206 176 99 69 264 172 352
1 0 0 0 0 1 0 0 0 0 1 1 1 1 1 1 1 2 2 24 29 18 20 18 24 30 27 41 32 35 37 30 34 48 46 1 0 0 40 121 151 196
0 1 1 1 0 0 0 0 1 1 1 1 1 1 1 1 2 1 1 1 8 4 4 6 27 39 37 22 30 38 48 69 89 82 75 91 68 82 90 26 113 102
0 1 1 0 0 0 0 1 1 1 1 1 1 2 1 1 2 1 1 1 2 3 1 4 43 12 14 18 24 30 39 46 62 87 84 81 90 15 109 1 155 179
0 1 0 0 0 1 2 0 0 0 0 0 2 1 0 2 0 0 0 0 0 0 0 0 8 3 11 16 20 17 15 22 27 55 119 126 128 131 152 110 51 100
0 1 0 0 0 0 0 0 0 0 0 0 4 0 0 0 1 0 0 0 0 0 0 4 1 2 11 25 25 16 18 21 33 46 65 60 62 103 122 124 103 147
0 0 0 0 0 1 0 0 0 0 0 0 0 0 0 0 0 0 1 2 0 3 0 1 1 1 13 15 30 19 13 0 2 3 3 0 3 24 21 32 78 122
0 0 0 0 0 0 0 0 0 0 0 0 0 0 0 0 0 0 0 1 5 8 0 0 2 0 0 2 13 16 21 0 0 0 0 1 1 5 5 7 16 2
0 0 0 0 0 0 0 0 0 0 0 0 0 0 0 0 0 0 0 0 0 1 6 3 0 0 0 0 0 0 0 0 1 0 1 1 1 1 0 0 2 11

ECMWFNIL_con_mucape_105.txt.gz
CAPE
79 98 267 314 321 454 522 568 527 554 582 536 478 476 485 589 692 707 712 675 591 504 436 322 356 294 325 431 393 222 443 575 820 485 540 504 277 218 340 328 304 295
16 42 77 95 183 319 416 564 511 618 650 611 531 469 450 446 498 519 562 602 546 406 355 307 251 305 316 203 246 460 531 723 691 515 542 548 445 316 343 377 326 290
12 22 51 87 168 208 380 537 521 587 618 623 565 487 452 461 451 428 412 458 396 280 403 426 416 435 433 181 23 200 366 561 612 551 470 616 577 436 353 328 274 194
19 22 64 113 176 290 380 432 449 431 462 527 519 470 456 462 467 461 411 455 541 518 482 463 456 428 352 132 359 361 384 484 525 501 503 440 418 468 347 430 369 246
4 2 19 89 226 348 358 323 395 230 414 416 455 441 454 433 426 341 424 421 439 459 415 363 354 349 361 405 457 472 477 540 434 435 398 283 280 291 316 328 316 271
0 36 109 170 239 339 346 333 349 325 417 282 388 374 393 422 403 153 197 453 368 346 89 339 397 361 367 465 488 417 395 396 311 244 173 211 265 197 317 326 297 384
4 18 36 80 158 201 232 241 203 357 366 283 241 387 374 398 452 157 481 360 422 497 315 336 454 324 348 318 431 385 255 24 236 247 200 69 182 139 130 164 238 280
0 2 19 0 15 29 97 91 111 255 253 174 219 367 364 358 379 370 455 455 519 439 363 318 285 379 258 251 232 270 0 0 170 78 177 156 194 150 154 252 297 283
2 4 10 0 0 1 2 13 12 148 143 87 133 130 313 355 327 398 417 353 364 440 382 374 388 387 353 301 312 400 99 180 103 84 95 120 105 150 158 288 269 418
0 1 2 1 0 1 2 5 4 3 19 2 36 92 121 188 139 335 376 285 272 305 348 374 351 364 451 498 418 454 316 408 368 351 279 188 244 166 222 342 410 427
0 0 1 2 1 1 0 1 2 1 0 2 3 31 64 61 56 197 284 232 160 225 321 377 412 364 367 312 330 309 224 206 332 295 240 354 266 296 284 303 343 296
2 1 0 0 2 2 1 0 0 0 0 0 1 3 5 6 12 11 9 149 180 256 339 385 389 404 356 377 394 340 279 304 289 249 97 225 191 241 273 180 286 193
1 0 0 1 3 1 2 1 0 0 0 1 0 1 4 4 1 1 3 106 100 128 217 287 256 263 302 217 184 233 234 100 183 112 109 76 86 118 214 235 248 284
0 0 1 2 3 3 3 1 0 0 0 1 1 0 1 6 4 2 2 65 42 74 111 144 33 214 124 50 56 65 37 11 38 64 119 169 115 228 278 246 238 154
0 3 2 1 1 3 2 2 1 0 1 2 1 0 1 2 3 6 4 29 51 72 94 131 87 58 46 30 29 29 24 23 74 76 178 326 278 154 170 157 148 141
2 4 1 2 3 1 1 2 1 0 1 2 2 1 0 1 1 1 2 22 39 51 29 62 58 62 56 33 26 20 17 25 34 36 29 35 61 73 68 160 190 157
4 2 2 2 4 4 4 2 0 0 0 0 1 0 1 1 0 0 1 0 2 8 6 13 19 26 34 39 37 30 24 14 13 24 23 34 47 36 48 119 202 174
4 1 2 2 4 2 1 0 0 0 0 0 1 0 0 0 0 0 1 1 2 2 0 1 0 4 13 15 24 31 22 22 17 22 27 32 33 35 50 64 120 129
2 1 2 1 1 0 0 0 0 0 0 0 0 1 1 0 0 0 0 1 6 4 6 8 4 0 0 0 4 21 28 41 42 41 41 63 74 64 64 72 106 103
3 3 2 0 1 0 0 0 0 0 1 1 2 2 2 2 0 0 0 0 0 0 8 12 3 0 0 4 10 12 16 24 28 26 28 42 65 75 75 71 88 21
4 3 2 0 1 0 0 0 0 0 0 0 0 0 0 0 0 0 0 0 0 0 4 1 5 2 2 0 10 14 19 22 22 20 22 28 42 78 101 82 48 42
2 2 1 0 0 0 0 0 0 0 0 0 0 0 0 0 0 0 0 0 0 1 0 0 0 0 3 1 2 9 11 8 5 9 18 24 24 35 48 59 70 98
0 0 0 0 0 0 0 0 0 0 0 0 0 0 0 0 0 0 0 0 0 0 0 4 4 2 3 4 1 2 0 5 2 1 1 8 16 21 24 20 24 44
0 0 0 0 0 0 0 0 0 0 0 0 0 0 0 0 0 0 0 0 0 0 0 0 4 2 2 3 6 6 2 1 1 1 0 0 0 0 0 0 0 0
0 0 0 0 0 0 0 0 0 0 0 0 0 0 0 0 0 0 0 0 0 0 0 0 0 3 4 2 3 3 0 1 2 1 0 0 0 0 0 0 0 0
0 0 0 0 0 0 0 0 0 0 0 0 0 0 0 0 0 0 0 0 0 0 0 0 0 0 0 0 1 1 0 0 1 0 0 0 0 0 0 0 0 0

ECMWFNIL_con_mucape_108.txt.gz
CAPE
0 0 3 5 6 28 308 382 376 338 336 354 356 318 270 62 60 230 232 98 227 210 269 326 328 239 314 334 399 360 272 329 220 128 93 63 37 120 288 127 57 169
0 0 0 117 258 280 255 163 274 43 53 27 19 189 187 178 186 173 184 190 174 193 242 272 351 365 415 435 448 451 446 373 275 279 284 183 300 291 260 128 141 153
26 72 149 157 233 278 253 62 47 35 179 150 125 129 121 132 164 163 136 153 180 191 176 172 264 212 358 388 396 426 430 388 315 228 166 270 356 350 303 272 239 164
65 96 132 156 175 176 151 140 140 105 86 58 48 70 95 128 140 127 292 161 396 379 308 347 370 382 389 400 410 463 484 510 449 343 272 215 284 324 351 364 246 183
45 58 48 46 51 46 54 65 69 67 46 17 30 73 117 156 158 139 379 443 464 311 148 165 384 416 437 394 420 393 492 434 323 306 232 228 194 142 174 211 238 310
6 22 21 10 8 7 8 9 62 37 7 3 26 68 120 167 173 135 180 337 224 126 6 37 169 413 414 395 369 422 339 283 307 266 198 202 32 19 93 96 126 88
6 7 6 2 2 4 5 4 6 7 4 4 17 55 78 133 113 53 31 112 134 34 5 1 0 98 355 331 315 308 208 219 166 197 166 67 0 0 6 63 103 54
5 5 3 1 0 0 2 7 7 5 9 4 7 7 58 52 5 4 2 2 3 1 1 1 280 318 254 362 211 304 239 199 107 2 19 165 67 39 56 8 15 31
0 0 0 0 0 0 0 2 2 5 8 4 13 20 8 10 5 2 1 1 28 12 22 103 154 253 292 304 289 226 254 248 158 98 58 21 95 68 52 60 67 58
0 0 0 0 0 0 1 3 7 7 6 8 17 10 8 3 2 2 1 1 1 1 0 217 177 135 286 290 321 216 197 191 173 157 136 53 46 23 44 77 83 93
0 0 0 1 2 2 2 3 4 6 8 9 9 7 7 1 1 1 1 1 1 33 46 47 153 121 119 187 204 122 87 57 52 51 75 81 87 92 84 75 88 88
0 1 2 3 3 3 4 4 4 5 6 6 6 6 6 1 0 0 1 1 3 8 2 57 88 29 25 33 35 29 22 52 96 66 67 54 87 105 142 167 170 197
1 1 2 3 4 3 4 4 4 4 4 4 6 7 6 5 3 2 1 2 3 7 30 36 8 8 6 7 4 9 45 102 117 86 133 155 166 173 137 211 156 186
2 2 2 4 4 3 2 4 2 3 3 4 5 6 5 4 4 4 4 3 1 6 42 52 22 8 6 2 0 0 2 43 153 178 111 75 92 94 108 108 92 94
4 3 2 1 0 0 0 0 0 2 4 5 4 2 3 4 6 6 6 6 7 9 8 12 20 15 9 5 3 0 0 0 37 62 70 68 56 74 114 137 126 94
3 2 1 0 0 0 0 0 1 1 1 0 0 0 0 0 1 3 2 1 2 2 0 3 7 8 10 10 8 5 4 0 15 35 38 38 47 67 81 108 124 98
2 1 1 1 1 0 0 0 0 0 0 0 0 0 0 0 0 0 0 0 0 0 0 0 2 15 28 29 24 24 28 23 8 10 27 28 39 52 57 69 69 95
0 0 0 0 1 1 0 0 0 0 0 0 0 0 0 0 0 0 0 0 0 0 0 0 9 18 31 35 23 20 15 25 34 34 41 51 31 25 22 7 0 0
0 0 0 0 0 0 0 0 0 0 0 0 0 0 0 0 0 0 0 0 0 0 0 1 8 16 19 34 24 17 16 18 20 31 29 18 8 3 6 8 1 0
0 0 0 0 0 0 0 0 0 0 0 0 0 0 0 0 0 0 0 0 0 0 0 2 2 11 12 24 28 8 3 5 2 9 8 2 1 2 11 5 2 3
1 0 0 1 1 0 0 0 0 0 0 0 0 0 0 0 0 0 0 0 0 0 0 0 0 0 0 0 0 0 0 0 0 0 0 0 0 1 2 2 16 8
1 2 1 1 0 0 0 0 0 0 0 0 0 0 0 0 0 0 0 0 0 0 0 0 0 0 2 3 0 0 0 0 0 0 0 6 9 1 0 0 4 24
1 1 0 0 0 0 0 0 0 0 0 0 0 0 0 0 0 0 0 0 0 0 0 0 0 0 0 0 0 1 0 0 0 0 6 9 7 2 2 0 0 15
0 0 0 0 0 0 0 0 0 0 0 0 0 0 0 0 0 0 0 0 0 0 0 0 0 0 0 0 0 0 0 0 0 0 0 0 0 7 7 0 2 0
0 0 0 0 0 0 0 0 0 0 0 0 0 0 0 0 0 0 0 0 0 0 0 0 0 0 0 0 0 0 0 0 0 0 0 0 0 0 0 6 4 0
0 0 0 0 0 0 0 0 0 0 0 0 0 0 0 0 0 0 0 0 0 0 0 0 0 0 0 0 0 0 0 0 0 0 0 0 0 0 0 0 4 4

ECMWFNIL_con_mucape_114.txt.gz
CAPE
615 388 4 71 20 1 2 6 5 7 8 12 16 40 58 55 65 46 26 27 54 51 36 23 14 12 28 50 82 98 103 97 112 132 163 226 320 358 396 380 379 382
525 26 56 48 34 10 16 10 10 15 15 11 11 19 59 23 22 10 6 6 6 9 17 6 5 4 6 13 15 53 80 93 69 129 155 223 302 357 376 420 414 378
6 2 2 2 7 6 3 3 8 7 7 7 11 21 22 5 4 5 4 5 6 5 3 2 7 5 3 4 3 52 50 36 19 18 45 97 131 170 249 305 302 323
3 3 4 10 13 7 8 8 4 2 2 3 7 5 5 3 4 4 4 4 3 3 2 3 6 7 4 1 3 17 30 9 1 1 14 32 72 125 130 151 139 166
2 5 10 6 5 5 5 6 7 10 1 5 8 3 4 1 3 3 3 4 2 2 2 1 3 8 1 1 0 1 6 6 105 106 57 15 17 31 74 25 12 158
4 2 1 0 4 7 10 6 6 2 9 6 2 2 1 2 1 1 1 0 1 1 0 0 0 0 1 2 2 0 3 33 11 31 66 8 7 0 13 26 58 60
1 3 2 3 6 5 1 1 4 15 8 5 1 1 1 0 0 0 0 0 0 0 0 0 0 0 0 0 0 0 4 55 25 10 58 0 1 0 0 1 3 3
5 4 5 5 3 1 0 2 10 10 8 4 4 0 2 0 0 0 0 0 1 0 0 0 0 0 0 0 0 0 2 3 2 2 2 1 6 2 3 0 62 5
4 5 2 0 2 4 6 10 8 7 6 4 2 2 2 1 1 1 0 0 0 0 0 0 0 0 0 0 1 2 2 4 4 3 2 2 2 3 4 6 4 5
1 3 6 6 6 6 8 8 6 4 2 0 0 3 2 0 0 1 0 0 0 0 0 0 0 0 0 0 1 4 5 3 4 5 5 4 3 3 18 22 5 3
6 7 8 8 8 6 6 6 4 1 0 0 1 1 0 0 0 0 0 0 0 0 0 0 0 3 3 2 2 3 3 3 3 4 5 4 4 3 10 21 30 36
7 6 6 6 6 5 7 2 0 0 0 0 0 0 0 0 0 0 1 0 0 0 0 0 0 3 2 4 2 2 2 2 3 2 2 2 2 2 2 3 11 27
5 3 6 7 6 4 2 0 0 0 0 0 0 0 0 0 0 0 1 0 0 0 0 0 0 0 0 0 0 0 1 1 1 0 1 2 2 1 1 2 4 4
3 7 7 6 4 1 0 0 0 0 0 0 0 0 0 0 0 0 0 0 0 0 0 0 0 0 0 0 0 0 0 0 0 0 0 0 0 0 0 0 2 4
6 7 4 3 0 0 0 0 0 0 0 0 0 0 0 0 0 0 0 0 0 0 0 0 0 0 0 0 0 0 0 0 0 0 0 0 0 0 0 0 1 2
3 4 3 1 0 0 0 0 0 0 0 0 0 0 0 0 0 0 0 0 0 0 0 0 0 0 0 0 0 0 0 0 0 0 0 0 0 0 0 0 0 0
2 2 1 0 0 0 0 0 0 0 0 0 0 0 0 0 0 0 0 0 0 0 0 0 0 0 0 0 0 0 0 0 0 0 0 0 0 0 0 0 0 0
1 0 0 0 0 0 0 0 0 0 0 0 0 0 0 0 0 0 0 0 0 0 0 0 0 0 0 0 0 0 0 0 0 0 0 0 1 0 0 0 0 0
0 0 0 0 0 0 0 0 0 0 0 0 0 0 0 0 0 0 0 0 0 0 0 0 0 0 0 0 0 0 0 0 0 0 0 0 0 1 0 0 0 0
0 0 0 0 0 0 0 0 0 0 0 0 0 0 0 0 0 0 0 0 0 0 0 0 0 0 0 0 0 0 0 0 0 0 0 0 0 0 0 0 0 0
0 0 0 0 0 0 0 0 0 0 0 0 0 0 0 0 0 0 0 0 0 0 0 0 0 0 0 0 0 0 0 0 0 0 0 0 0 0 0 0 0 0
0 0 0 0 0 0 0 0 0 0 0 0 0 0 0 0 0 0 0 0 0 0 0 0 0 0 0 0 0 0 0 0 0 0 0 0 0 0 0 0 0 0
0 0 0 0 0 0 0 0 0 0 0 0 0 0 0 0 0 0 0 0 0 0 0 0 0 0 0 0 0 0 0 0 0 0 0 0 0 0 0 0 0 0
0 0 0 0 0 0 0 0 0 0 0 0 0 0 0 0 0 0 0 0 0 0 0 0 0 0 0 0 0 0 0 0 0 0 0 0 0 0 0 0 0 0
0 0 0 0 0 0 0 0 0 0 0 0 0 0 0 0 0 0 0 0 0 0 0 0 0 0 0 0 0 0 0 0 0 0 0 0 0 0 0 0 0 0
0 0 0 0 0 0 0 0 0 0 0 0 0 0 0 0 0 0 0 0 0 0 0 0 0 0 0 0 0 0 0 0 0 0 0 0 0 0 0 0 0 0

ECMWFNIL_con_mucape_117.txt.gz
CAPE
754 689 622 380 59 40 17 17 13 14 12 18 16 13 16 18 9 4 1 1 0 1 1 2 3 3 2 4 12 51 116 134 174 227 227 183 427 431 222 389 511 668
820 709 461 32 16 10 9 14 10 14 11 6 11 15 15 4 1 1 0 1 0 2 2 2 2 2 2 2 5 13 121 104 116 112 147 194 403 361 254 290 300 368
812 603 2 2 2 2 6 8 9 8 4 3 1 0 0 0 0 1 1 2 3 3 2 2 1 0 0 2 1 20 66 70 62 66 120 163 158 336 216 253 228 138
651 179 2 1 1 3 7 8 4 3 2 1 1 0 0 1 1 1 1 2 2 1 2 1 0 0 0 0 1 4 20 83 91 63 86 164 158 120 136 159 323 389
162 2 2 2 1 4 11 2 2 4 2 1 1 1 1 2 2 1 1 1 1 1 1 0 0 1 1 2 2 4 15 47 64 60 66 39 95 58 75 83 82 179
1 1 1 0 1 1 1 1 6 3 1 0 1 1 1 2 1 1 0 0 1 1 0 0 0 2 2 0 2 13 40 31 30 14 13 13 15 12 9 12 8 6
0 1 1 0 0 3 2 4 5 2 0 0 1 1 2 2 1 1 0 0 0 0 0 0 0 0 0 1 6 6 10 13 8 4 4 6 5 4 5 7 6 9
2 2 1 1 2 1 2 2 3 1 1 0 1 0 0 1 0 0 0 0 0 0 0 0 0 0 0 2 2 2 2 4 5 4 4 4 4 4 4 6 7 5
1 0 1 3 1 1 0 0 2 0 0 0 0 0 0 0 0 0 0 0 1 0 0 0 0 0 0 1 1 1 1 2 2 2 2 2 2 3 4 5 5 7
0 2 1 3 3 2 0 1 0 0 0 0 0 0 0 0 0 0 0 0 0 0 0 0 0 0 0 0 0 0 0 0 0 1 1 1 1 1 3 4 5 5
3 2 3 1 0 1 1 0 0 0 0 0 0 0 0 0 0 0 0 0 0 0 0 0 0 0 0 0 0 0 0 0 0 0 0 0 0 0 3 4 4 4
1 3 5 1 4 2 0 0 0 0 0 0 0 0 0 0 0 0 0 0 0 0 0 0 0 0 0 0 0 0 0 0 0 0 0 0 0 0 0 0 1 2
2 2 3 6 3 1 0 0 0 0 0 0 0 0 0 0 0 0 0 0 0 0 0 0 0 0 0 0 0 0 1 1 1 0 0 0 1 0 0 0 3 3
3 3 7 6 1 0 0 0 0 0 0 0 0 0 0 0 0 0 0 0 0 0 0 0 0 0 0 0 1 0 0 0 0 0 0 0 0 0 0 0 0 1
6 7 6 1 0 0 0 0 0 0 0 0 0 0 0 0 0 0 0 1 0 0 0 0 0 0 0 0 0 0 0 0 0 0 0 0 0 0 0 0 0 0
7 6 1 0 0 0 0 0 0 0 0 0 0 0 0 0 0 0 0 0 0 0 0 0 0 0 0 0 0 0 0 0 0 0 0 0 0 0 0 0 0 0
3 2 2 1 0 0 0 0 0 0 0 0 0 0 0 0 0 0 0 0 0 0 0 0 0 0 0 0 0 0 0 0 0 0 0 0 0 0 0 0 0 0
0 0 2 1 1 0 0 0 0 0 0 0 0 0 0 0 0 0 0 0 0 0 0 0 0 0 0 0 0 0 0 0 0 0 0 0 0 0 0 0 0 0
0 0 0 0 1 0 1 1 3 0 0 0 0 0 0 0 0 0 0 0 0 0 0 0 0 0 0 0 0 0 0 0 0 0 0 0 0 0 0 0 0 0
0 0 0 0 0 0 0 0 0 0 0 0 0 0 0 0 0 0 0 0 0 0 0 0 0 0 0 0 0 0 0 0 0 0 0 0 0 0 0 0 0 0
0 0 0 0 0 0 0 0 0 0 0 0 0 0 0 0 0 0 0 0 0 0 0 0 0 0 0 0 0 0 0 0 0 0 0 0 0 0 0 0 0 0
0 0 0 0 0 0 0 0 0 0 0 0 0 0 0 0 0 0 0 0 0 0 0 0 0 0 0 0 0 0 0 0 0 0 0 0 0 0 0 0 0 0
0 0 0 0 0 0 0 0 0 0 0 0 0 0 0 0 0 0 0 0 0 0 0 0 0 0 0 0 0 0 0 0 0 0 0 0 0 0 0 0 0 0
0 0 0 0 0 0 0 0 0 0 0 0 0 0 0 0 0 0 0 0 0 0 0 0 0 0 0 0 0 0 0 0 0 0 0 0 0 0 0 0 0 0
0 0 0 0 0 0 0 0 0 0 0 0 0 0 0 0 0 0 0 0 0 0 0 0 0 0 0 0 0 0 0 0 0 0 0 0 0 0 0 0 0 0
0 0 0 0 0 0 0 0 0 0 0 0 0 0 0 0 0 0 0 0 0 0 0 0 0 0 0 0 0 0 0 0 0 0 0 0 0 0 0 0 0 0

ECMWFNIL_con_mucape_123.txt.gz
CAPE
496 426 370 385 331 75 111 107 108 81 28 28 60 82 41 28 7 6 6 9 8 7 6 6 9 17 66 118 281 437 482 225 156 167 301 337 268 297 214 148 144 137
324 325 388 360 223 15 24 90 40 15 8 13 24 20 9 6 5 4 6 5 5 5 4 6 6 6 15 46 204 238 121 24 29 30 107 77 14 12 12 21 22 23
409 464 453 378 293 22 14 8 8 4 10 9 9 8 5 5 6 5 4 5 4 4 6 6 6 6 8 12 14 10 11 8 9 10 34 12 9 12 13 12 10 8
506 524 437 381 96 20 7 8 6 7 9 7 5 4 5 6 5 5 6 5 4 4 6 5 5 5 7 8 9 7 8 9 8 10 11 12 10 12 11 11 8 4
564 503 415 322 11 7 8 5 8 9 6 7 6 4 4 5 3 3 2 2 3 3 5 4 4 4 4 4 5 6 6 6 8 8 8 10 10 11 12 9 6 4
556 415 364 79 6 7 4 4 5 6 5 6 7 3 3 1 2 3 2 2 2 6 5 7 4 4 3 2 3 4 5 7 9 10 8 9 10 9 8 8 5 2
509 320 43 10 8 6 8 6 5 4 5 5 3 4 3 4 3 3 3 1 2 2 3 2 4 3 2 2 4 5 6 9 10 7 8 9 8 6 8 5 3 3
419 236 7 8 6 6 7 6 5 5 5 4 4 0 4 4 4 2 2 2 1 2 2 1 2 2 3 5 6 7 8 9 8 8 9 8 7 6 5 3 7 4
157 10 9 8 7 7 5 4 4 4 3 3 3 4 1 3 5 2 0 2 2 0 2 2 2 4 5 5 5 6 7 8 8 9 8 11 9 10 6 8 6 6
9 10 6 7 8 4 4 4 4 4 4 4 3 4 3 0 1 4 2 0 0 0 2 3 1 2 5 4 3 3 4 6 6 9 10 15 16 14 10 8 9 5
13 10 8 8 5 4 4 4 4 2 2 3 4 3 2 3 0 1 2 0 0 0 1 0 0 2 3 4 3 5 3 4 5 8 12 13 14 16 11 12 10 7
11 9 5 3 3 4 4 4 3 3 1 3 4 2 2 2 5 0 0 0 0 0 0 0 0 0 0 0 2 2 4 7 7 8 10 10 10 11 12 10 12 12
8 6 4 3 3 2 3 3 3 2 2 3 4 4 1 1 0 0 0 0 0 0 0 0 0 0 0 0 2 2 4 3 3 5 10 12 8 9 11 9 9 8
6 4 4 2 2 2 3 4 2 3 2 3 6 2 0 0 0 0 0 0 0 0 0 0 0 0 0 0 0 2 1 2 0 1 5 8 8 4 8 14 12 4
5 5 3 3 2 2 2 3 3 4 2 3 4 4 1 1 0 0 0 0 0 0 0 0 0 0 0 0 0 0 0 0 0 0 0 0 1 0 0 0 4 9
4 3 3 2 2 3 2 3 4 5 4 3 2 2 1 0 0 0 0 0 0 0 0 0 0 0 0 0 0 0 1 0 0 0 0 0 0 0 0 0 0 0
27 2 1 1 2 3 4 1 3 5 4 2 2 3 1 0 0 0 0 0 0 0 0 0 0 0 0 0 0 0 0 0 0 0 0 0 0 0 0 0 0 0
106 32 1 1 2 2 4 3 4 4 3 2 4 1 0 0 0 0 0 0 0 0 0 0 0 0 0 0 0 0 0 0 0 0 0 0 0 0 0 0 0 0
2 1 1 2 2 4 5 3 4 4 2 2 2 0 0 0 0 0 0 0 0 0 0 0 0 0 0 0 0 0 0 0 0 0 0 0 0 0 0 0 0 0
1 2 2 2 3 4 4 2 4 2 2 1 0 0 0 0 0 0 0 0 0 0 0 0 0 0 0 0 0 0 0 1 0 0 0 0 0 0 0 0 0 0
3 2 1 3 2 2 3 4 1 2 0 0 0 0 0 0 0 0 0 0 0 0 0 0 0 0 0 0 0 0 0 0 0 0 0 0 0 0 0 0 0 0
2 2 2 2 1 3 3 2 2 0 0 0 0 0 0 0 0 0 0 0 0 0 0 0 0 0 0 0 0 0 0 0 0 0 0 0 0 0 0 0 0 0
2 2 3 2 2 3 1 0 0 0 0 0 0 0 0 0 0 0 0 0 0 0 0 0 0 0 0 0 0 0 0 3 0 0 0 0 0 0 0 0 0 0
1 2 3 2 0 0 0 0 0 0 0 0 0 0 0 0 0 0 0 0 0 0 0 0 0 0 0 0 0 0 0 3 0 0 0 0 0 0 0 0 0 0
2 2 0 1 0 0 0 0 0 0 0 0 0 0 0 0 0 0 0 0 0 0 0 0 0 0 0 0 0 0 0 0 0 0 0 0 0 0 0 0 0 0
2 1 0 0 0 0 0 0 0 0 0 0 0 0 0 0 0 0 0 0 0 0 0 0 0 0 0 0 0 0 0 0 0 0 0 0 0 0 0 0 0 0

ECMWFNIL_con_mucape_129.txt.gz
CAPE
572 574 534 492 394 275 0 0 0 0 0 0 0 0 0 2 16 10 2 0 0 0 0 0 1 0 0 0 0 0 0 0 0 0 0 0 0 0 0 0 0 0
472 443 402 353 328 243 106 0 0 0 0 0 0 0 1 6 4 2 0 0 0 0 0 0 0 0 0 0 0 0 0 0 0 0 0 0 0 0 0 0 0 0
346 334 333 238 102 277 86 0 0 0 0 0 0 1 9 0 0 0 0 0 0 0 0 0 0 0 0 0 0 0 0 0 0 0 0 0 0 0 0 0 0 0
0 0 71 0 185 258 65 0 0 0 0 0 0 0 0 0 0 0 0 70 0 0 0 0 0 0 0 0 0 0 0 0 0 0 0 0 0 0 0 0 0 0
0 0 0 69 302 204 49 0 0 1 3 0 0 0 0 0 0 0 4 5 0 0 0 0 0 0 0 0 0 0 0 0 0 0 0 0 0 0 0 0 0 0
0 0 255 402 255 241 33 0 3 6 1 0 0 0 0 0 0 0 0 0 0 0 0 0 0 0 0 0 0 0 0 0 0 0 0 0 0 0 0 0 0 0
0 287 515 457 311 222 0 2 6 0 0 0 0 0 0 2 0 0 0 0 0 0 0 0 0 0 0 3 2 0 0 0 0 0 0 0 0 0 0 0 0 0
243 462 473 282 256 7 4 8 3 0 0 0 0 0 0 0 0 0 0 0 0 0 0 0 0 0 0 0 0 0 0 0 0 0 0 0 0 0 0 0 0 0
321 390 290 236 7 5 6 5 0 0 0 0 0 0 0 0 0 0 0 0 0 0 0 0 0 0 0 0 0 0 0 0 0 0 0 0 0 0 0 0 0 0
245 241 208 156 8 8 6 1 0 0 0 0 0 0 0 0 0 0 0 0 0 0 0 0 0 0 0 0 0 0 0 0 0 0 0 0 0 0 0 0 0 0
97 251 126 11 6 10 8 4 0 0 0 0 0 0 0 0 0 0 0 0 0 0 0 0 0 0 0 0 0 0 0 0 0 0 0 0 0 0 0 0 0 0
6 211 9 10 12 10 8 6 3 0 0 0 0 0 0 0 0 0 0 0 0 0 0 0 0 0 0 0 0 0 0 0 0 0 0 0 0 0 0 0 0 0
236 57 11 14 9 5 5 5 3 0 0 0 0 0 0 0 0 0 0 0 0 0 0 0 0 0 0 0 0 0 0 0 0 0 0 0 0 0 0 0 0 0
258 231 11 8 5 2 0 1 0 0 0 0 0 0 0 0 0 0 0 0 0 0 0 0 0 0 0 0 0 0 0 0 0 0 0 0 0 0 0 0 0 0
234 218 8 128 15 0 0 1 2 0 0 0 0 0 0 0 0 0 0 0 0 0 0 0 0 0 0 0 0 0 0 0 0 0 0 0 0 0 0 0 0 0
215 200 106 0 0 0 0 0 0 0 0 0 0 0 0 0 0 0 0 0 0 0 0 0 0 0 0 0 0 0 0 0 0 0 0 0 0 0 0 0 0 0
4 111 4 0 0 0 0 0 0 0 0 0 0 0 0 0 0 0 0 0 0 0 0 0 0 0 0 0 0 0 0 0 0 0 0 0 0 0 0 0 0 0
6 4 100 230 239 226 222 207 178 45 0 0 0 0 0 0 0 0 0 0 0 0 0 0 0 0 0 0 0 0 0 0 0 0 0 0 0 0 0 0 0 0
4 0 0 145 103 0 0 0 0 0 0 0 0 0 0 0 0 0 0 0 0 0 0 0 0 0 0 0 0 0 0 0 0 0 0 0 0 0 0 0 0 0
0 0 0 0 0 0 0 0 0 0 0 0 0 0 0 0 0 0 0 0 0 0 0 0 0 0 0 0 0 0 0 0 0 0 0 0 0 0 0 0 0 0
0 0 0 0 0 0 0 0 0 0 0 2 0 0 0 0 0 0 0 0 0 0 0 0 0 0 0 0 0 0 0 0 0 0 0 0 0 0 0 0 0 0
0 0 0 136 127 112 113 157 279 252 119 0 0 0 0 0 0 0 0 0 0 0 0 0 0 0 0 0 0 0 0 0 0 0 0 0 0 0 0 0 0 0
225 276 267 265 299 301 332 322 210 127 6 0 0 0 0 0 0 0 0 0 0 0 0 0 0 0 0 0 0 0 0 0 0 0 0 0 0 0 0 0 0 0
310 266 242 261 301 326 260 135 0 5 0 0 0 0 0 0 0 0 0 0 0 0 0 0 0 0 0 0 0 0 0 0 0 0 0 0 0 0 0 0 0 0
0 0 0 168 140 127 0 0 0 0 0 0 0 0 0 0 0 0 0 0 0 0 0 0 0 0 0 0 0 0 0 0 0 0 0 0 0 0 0 0 0 0
0 0 0 0 0 0 0 0 0 0 0 0 0 0 0 0 0 0 0 0 0 0 0 0 0 0 0 0 0 0 0 0 0 0 0 0 0 0 0 0 0 0

ECMWFNIL_con_mucape_132.txt.gz
CAPE
664 630 570 524 446 371 303 234 0 0 0 0 0 0 0 0 0 0 0 0 0 0 0 0 0 0 0 0 0 0 0 0 0 0 0 0 0 0 0 0 0 0
645 583 529 489 417 382 339 248 78 0 0 0 0 0 0 0 0 0 0 0 0 0 0 0 0 0 0 0 0 0 0 0 0 0 0 0 0 0 0 0 0 0
600 558 555 518 464 387 289 218 0 0 0 0 0 0 0 0 0 0 0 0 0 0 0 0 0 0 0 0 0 0 0 0 0 0 0 0 0 0 0 0 0 0
624 626 580 510 447 362 264 232 234 0 0 0 0 0 0 0 0 0 0 0 0 0 0 0 0 0 0 0 0 0 0 0 0 0 0 0 0 0 0 0 0 0
613 561 491 440 356 297 244 263 61 0 0 0 0 0 0 0 0 0 0 0 0 0 0 0 0 0 0 0 0 0 0 0 0 0 0 0 0 0 0 0 0 0
477 420 383 361 292 231 195 262 33 0 0 0 0 0 0 0 1 0 0 0 0 0 0 0 0 0 0 0 0 0 0 0 0 0 0 0 0 0 0 0 0 0
345 332 300 273 229 0 81 200 0 0 0 0 0 0 0 0 0 0 0 0 0 0 0 0 0 0 0 0 0 0 0 0 0 0 0 0 0 0 0 0 0 0
306 237 205 160 9 187 227 153 0 0 0 0 0 0 0 0 0 0 0 0 0 0 0 0 0 0 0 0 0 0 0 0 0 0 0 0 0 0 0 0 0 0
294 197 0 28 255 361 216 0 0 0 0 0 0 0 0 0 0 0 0 0 0 0 0 0 0 0 0 0 0 0 0 0 0 0 0 0 0 0 0 0 0 0
231 114 8 237 461 322 186 0 0 0 0 0 0 0 0 0 0 0 0 0 0 0 0 0 0 0 0 0 0 0 0 0 0 0 0 0 0 0 0 0 0 0
70 0 106 393 388 140 0 0 0 0 0 0 0 0 0 0 0 0 0 0 0 0 0 0 0 0 0 0 0 0 0 0 0 0 0 0 0 0 0 0 0 0
0 0 292 368 122 0 0 0 0 0 0 0 0 0 0 0 0 0 0 0 0 0 0 0 0 0 0 0 0 0 0 0 0 0 0 0 0 0 0 0 0 0
38 0 254 263 0 0 0 0 0 0 0 0 0 0 0 0 0 0 0 0 0 0 0 0 0 0 0 0 0 0 0 0 0 0 0 0 0 0 0 0 0 0
2 0 258 134 0 0 0 0 0 0 0 0 0 0 0 0 0 0 0 0 0 0 0 0 0 0 0 0 0 0 0 0 0 0 0 0 0 0 0 0 0 0
152 19 222 123 164 141 0 0 0 0 0 0 0 0 0 0 0 0 0 0 0 0 0 0 0 0 0 0 0 0 0 0 0 0 0 0 0 0 0 0 0 0
150 48 216 205 208 190 175 105 102 0 0 0 0 0 0 0 0 0 0 0 0 0 0 0 0 0 0 0 0 0 0 0 0 0 0 0 0 0 0 0 0 0
196 219 229 252 243 244 212 141 0 0 0 0 0 0 0 0 0 0 0 0 0 0 0 0 0 0 0 0 0 0 0 0 0 0 0 0 0 0 0 0 0 0
254 249 259 262 162 222 186 170 193 211 210 81 0 0 0 0 0 0 0 0 0 0 0 0 0 0 0 0 0 0 0 0 0 0 0 0 0 0 0 0 0 0
214 220 214 214 218 239 247 250 226 182 0 0 0 0 0 0 0 0 0 0 0 0 0 0 0 0 0 0 0 0 0 0 0 0 0 0 0 0 0 0 0 0
268 248 213 79 85 0 134 184 6 0 0 0 0 0 2 0 0 0 0 0 0 0 0 0 0 0 0 0 0 0 0 0 0 0 0 0 0 0 0 0 0 0
218 230 30 0 0 0 0 0 26 30 0 0 99 166 50 0 0 0 0 0 0 0 0 0 0 0 0 0 0 0 0 0 0 0 0 0 0 0 0 0 0 0
276 170 0 0 0 0 68 202 237 248 252 264 219 151 13 0 0 0 0 0 0 0 0 0 0 0 0 0 0 0 0 0 0 0 0 0 0 0 0 0 0 0
340 154 0 0 50 223 275 295 312 304 250 235 140 70 6 0 0 0 0 0 0 0 0 0 0 0 0 0 0 0 0 0 0 0 0 0 0 0 0 0 0 0
394 32 0 22 303 316 281 269 266 311 238 0 25 6 0 0 0 0 0 0 0 0 0 0 0 0 0 0 0 0 0 0 0 0 0 0 0 0 0 0 0 0
191 152 334 380 281 129 0 238 135 118 0 10 0 0 0 0 0 0 0 0 0 0 0 0 0 0 0 0 0 0 0 0 0 0 0 0 0 0 0 0 0 0
438 452 412 315 0 0 0 10 0 0 0 0 0 0 0 0 0 0 0 0 0 0 0 0 0 0 0 0 0 0 0 0 0 0 0 0 0 0 0 0 0 0

ECMWFNIL_con_mucape_135.txt.gz
CAPE
855 834 808 797 765 704 556 384 308 286 230 154 31 0 0 0 0 0 0 0 0 0 0 0 0 0 0 0 0 0 0 0 0 0 0 0 0 0 0 0 0 0
877 882 872 810 700 533 419 367 369 315 254 190 25 0 0 0 0 0 0 0 0 0 0 0 0 0 0 0 0 0 0 0 0 0 0 0 0 0 0 0 0 0
880 888 818 685 564 458 380 364 356 327 242 196 0 0 0 0 0 0 0 0 0 0 0 0 0 0 0 0 0 0 0 0 0 0 0 0 0 0 0 0 0 0
818 763 682 615 524 460 406 409 390 321 247 220 0 0 0 0 0 0 0 0 0 0 0 0 0 0 0 0 0 0 0 0 0 0 0 0 0 0 0 0 0 0
669 653 638 600 526 485 472 454 390 310 276 208 0 0 0 0 0 0 0 0 0 0 0 0 0 0 0 0 0 0 0 0 0 0 0 0 0 0 0 0 0 0
670 668 628 569 526 512 509 433 366 288 296 166 0 0 0 0 0 0 0 0 0 0 0 0 0 0 0 0 0 0 0 0 0 0 0 0 0 0 0 0 0 0
678 628 579 566 571 525 464 417 334 249 298 188 0 0 0 0 0 0 0 0 0 0 0 0 0 0 0 0 0 0 0 0 0 0 0 0 0 0 0 0 0 0
670 628 642 625 569 502 428 363 291 247 290 206 0 0 0 0 0 0 0 0 0 0 0 0 0 0 0 0 0 0 0 0 0 0 0 0 0 0 0 0 0 0
691 661 624 577 498 422 350 275 232 236 270 220 0 0 0 0 0 0 0 0 0 0 0 0 0 0 0 0 0 0 0 0 0 0 0 0 0 0 0 0 0 0
666 617 540 440 370 292 251 215 227 300 260 212 0 0 0 0 0 0 0 0 0 0 0 0 0 0 0 0 0 0 0 0 0 0 0 0 0 0 0 0 0 0
653 578 509 419 335 237 177 230 347 338 252 156 0 0 0 0 0 0 0 0 0 0 0 0 0 0 0 0 0 0 0 0 0 0 0 0 0 0 0 0 0 0
594 560 523 419 324 126 96 348 397 304 239 0 0 0 0 0 0 0 0 0 0 0 0 0 0 0 0 0 0 0 0 0 0 0 0 0 0 0 0 0 0 0
598 509 460 395 269 0 264 355 341 257 117 0 0 0 0 0 0 0 0 0 0 0 0 0 0 0 0 0 0 0 0 0 0 0 0 0 0 0 0 0 0 0
517 459 406 332 236 222 279 316 263 184 0 0 0 0 0 0 0 0 0 0 0 0 0 0 0 0 0 0 0 0 0 0 0 0 0 0 0 0 0 0 0 0
483 427 358 290 239 230 275 248 192 71 0 0 0 0 0 0 0 0 0 0 0 0 0 0 0 0 0 0 0 0 0 0 0 0 0 0 0 0 0 0 0 0
459 399 362 319 245 250 262 212 110 65 0 0 0 0 0 0 0 0 0 0 0 0 0 0 0 0 0 0 0 0 0 0 0 0 0 0 0 0 0 0 0 0
413 408 428 357 248 261 248 183 144 131 48 0 0 0 0 0 0 0 0 0 0 0 0 0 0 0 0 0 0 0 0 0 0 0 0 0 0 0 0 0 0 0
474 480 454 310 280 280 270 211 184 185 154 66 0 0 0 0 0 0 0 0 0 0 0 0 0 0 0 0 0 0 0 0 0 0 0 0 0 0 0 0 0 0
515 472 330 290 276 281 287 259 261 236 71 156 158 0 0 0 0 0 2 0 0 0 0 0 0 0 0 0 0 0 0 0 0 0 0 0 0 0 0 0 0 0
418 326 310 292 279 274 276 268 178 172 188 188 145 0 1 22 50 79 19 0 0 0 0 0 0 0 0 0 0 0 0 0 0 0 0 0 0 0 0 0 0 0
331 328 304 276 271 250 123 78 206 197 0 0 0 37 109 147 141 114 27 0 0 0 0 0 0 0 0 0 0 0 0 0 0 0 0 0 0 0 0 0 0 0
355 335 306 245 157 120 75 67 177 2 0 0 150 184 170 168 156 95 10 0 0 0 0 0 0 0 0 0 0 0 0 0 0 0 0 0 0 0 0 0 0 0
399 360 292 256 256 124 65 2 8 39 155 221 235 221 191 112 78 62 7 0 0 0 0 0 0 0 0 0 0 0 0 0 0 0 0 0 0 0 0 0 0 0
422 407 320 242 212 158 32 14 116 224 234 224 103 103 0 0 9 12 0 0 0 0 0 0 0 0 0 0 0 0 0 0 0 0 0 0 0 0 0 0 0 0
393 462 409 309 244 322 87 104 218 210 181 0 193 108 0 0 0 0 0 0 0 0 0 0 0 0 0 0 0 0 0 0 0 0 0 0 0 0 0 0 0 0
366 287 331 270 148 306 74 178 234 146 0 0 0 0 0 0 0 0 0 0 0 0 0 0 0 0 0 0 0 0 0 0 0 0 0 0 0 0 0 0 0 0

ECMWFNIL_con_mucape_138.txt.gz
CAPE
1002 1002 862 734 749 642 659 680 644 538 332 196 0 0 0 0 0 0 0 0 0 0 0 0 0 0 0 0 0 0 0 0 0 0 0 0 0 0 0 0 0 0
1066 1044 897 716 758 716 747 709 642 444 279 218 195 0 0 0 0 0 0 0 0 0 0 0 0 0 0 0 0 0 0 0 0 0 0 0 0 0 0 0 0 0
1082 1037 870 718 774 787 793 728 555 397 293 260 225 24 0 0 0 0 0 0 0 0 0 0 0 0 0 0 0 0 0 0 0 0 0 0 0 0 0 0 0 0
946 890 759 813 838 852 801 663 496 344 285 282 234 148 0 0 0 0 0 0 0 0 0 0 0 0 0 0 0 0 0 0 0 0 0 0 0 0 0 0 0 0
825 805 851 899 907 881 753 599 444 342 342 325 248 176 0 0 0 0 0 0 0 0 0 0 0 0 0 0 0 0 0 0 0 0 0 0 0 0 0 0 0 0
917 898 942 979 969 848 695 565 421 392 394 302 240 208 0 0 0 0 0 0 0 0 0 0 0 0 0 0 0 0 0 0 0 0 0 0 0 0 0 0 0 0
930 935 985 984 892 727 622 498 444 414 365 250 189 238 3 0 0 0 0 0 0 0 0 0 0 0 0 0 0 0 0 0 0 0 0 0 0 0 0 0 0 0
828 934 972 909 779 686 554 433 372 358 254 185 152 212 0 0 0 0 0 0 0 0 0 0 0 0 0 0 0 0 0 0 0 0 0 0 0 0 0 0 0 0
784 857 824 760 706 628 506 399 370 283 226 165 0 207 0 0 0 0 0 0 0 0 0 0 0 0 0 0 0 0 0 0 0 0 0 0 0 0 0 0 0 0
758 694 719 705 628 540 452 370 336 260 190 39 10 217 192 0 0 0 0 0 0 0 0 0 0 0 0 0 0 0 0 0 0 0 0 0 0 0 0 0 0 0
724 687 685 632 568 485 443 398 303 240 76 20 128 257 167 0 0 0 0 0 0 0 0 0 0 0 0 0 0 0 0 0 0 0 0 0 0 0 0 0 0 0
682 681 646 614 580 560 489 391 313 233 52 58 271 260 171 0 0 0 0 0 0 0 0 0 0 0 0 0 0 0 0 0 0 0 0 0 0 0 0 0 0 0
690 669 638 634 612 548 478 405 331 241 21 228 296 227 50 0 0 0 0 0 0 0 0 0 0 0 0 0 0 0 0 0 0 0 0 0 0 0 0 0 0 0
708 689 721 692 568 504 472 420 324 247 206 261 280 179 0 0 0 0 0 0 0 0 0 0 0 0 0 0 0 0 0 0 0 0 0 0 0 0 0 0 0 0
778 705 611 528 486 443 422 394 300 236 217 275 247 155 0 0 0 0 0 0 0 0 0 0 0 0 0 0 0 0 0 0 0 0 0 0 0 0 0 0 0 0
736 625 530 490 467 490 432 358 282 233 226 257 202 0 0 0 0 0 0 0 0 0 0 0 0 0 0 0 0 0 0 0 0 0 0 0 0 0 0 0 0 0
744 628 536 567 540 438 420 354 302 247 239 224 118 109 0 0 0 0 0 0 0 0 0 0 0 0 0 0 0 0 0 0 0 0 0 0 0 0 0 0 0 0
720 640 459 489 530 496 426 386 362 267 242 208 63 157 40 0 0 0 0 0 0 0 0 0 0 0 0 0 0 0 0 0 0 0 0 0 0 0 0 0 0 0
671 555 419 442 454 424 431 442 382 277 275 213 192 184 170 0 0 9 0 0 4 1 0 0 0 0 0 0 0 0 0 0 0 0 0 0 0 0 0 0 0 0
643 539 364 348 388 456 494 430 290 296 296 282 262 259 217 142 57 0 0 15 10 4 0 0 0 0 0 0 0 0 0 0 0 0 0 0 0 0 0 0 0 0
673 508 344 321 423 536 436 288 262 297 306 310 309 273 211 173 0 0 7 42 44 11 0 0 0 0 0 0 0 0 0 0 0 0 0 0 0 0 0 0 0 0
627 456 292 390 509 392 275 269 266 286 304 287 255 218 208 116 0 37 76 92 54 10 0 0 0 0 0 0 0 0 0 0 0 0 0 0 0 0 0 0 0 0
516 422 387 552 458 247 239 246 198 104 103 227 217 196 113 6 72 122 116 97 64 10 0 0 0 0 0 0 0 0 0 0 0 0 0 0 0 0 0 0 0 0
443 439 540 590 281 110 49 64 27 131 63 5 135 85 22 100 168 161 117 59 14 6 0 0 0 0 0 0 0 0 0 0 0 0 0 0 0 0 0 0 0 0
449 537 656 581 326 116 106 108 107 104 38 1 1 55 150 182 198 177 117 35 5 0 0 0 0 0 0 0 0 0 0 0 0 0 0 0 0 0 0 0 0 0
516 619 684 426 143 167 188 131 107 110 53 18 65 176 234 239 222 167 71 41 4 0 0 0 0 0 0 0 0 0 0 0 0 0 0 0 0 0 0 0 0 0

ECMWFNIL_con_mucape_141.txt.gz
CAPE
1090 1044 948 704 670 699 738 656 560 568 564 476 287 53 6 0 0 0 0 0 0 0 0 0 0 0 0 0 0 0 0 0 0 0 0 0 0 0 0 0 0 0
1085 1009 832 786 781 702 705 644 591 608 559 409 254 215 22 0 0 0 0 0 0 0 0 0 0 0 0 0 0 0 0 0 0 0 0 0 0 0 0 0 0 0
1034 1005 846 822 760 716 676 639 639 622 490 367 267 225 217 0 0 0 0 0 0 0 0 0 0 0 0 0 0 0 0 0 0 0 0 0 0 0 0 0 0 0
976 895 863 810 677 707 690 695 679 550 413 325 264 245 239 7 0 0 0 0 0 0 0 0 0 0 0 0 0 0 0 0 0 0 0 0 0 0 0 0 0 0
940 941 972 789 718 724 732 726 711 550 430 350 302 288 258 5 0 0 0 0 0 0 0 0 0 0 0 0 0 0 0 0 0 0 0 0 0 0 0 0 0 0
959 1001 954 767 717 738 729 756 684 537 414 354 335 286 250 3 0 0 0 0 0 0 0 0 0 0 0 0 0 0 0 0 0 0 0 0 0 0 0 0 0 0
1016 936 885 750 724 770 747 701 601 462 350 289 254 248 194 147 0 0 0 0 0 0 0 0 0 0 0 0 0 0 0 0 0 0 0 0 0 0 0 0 0 0
925 832 773 736 794 736 727 694 548 426 335 239 240 188 166 159 0 0 0 0 0 0 0 0 0 0 0 0 0 0 0 0 0 0 0 0 0 0 0 0 0 0
808 774 802 809 760 704 674 631 476 369 297 226 208 0 168 162 0 0 0 0 0 0 0 0 0 0 0 0 0 0 0 0 0 0 0 0 0 0 0 0 0 0
891 780 862 827 748 754 662 552 424 331 274 255 184 3 180 170 0 0 0 0 0 0 0 0 0 0 0 0 0 0 0 0 0 0 0 0 0 0 0 0 0 0
926 815 813 774 783 751 651 498 392 314 247 259 154 18 223 189 0 0 0 0 0 0 0 0 0 0 0 0 0 0 0 0 0 0 0 0 0 0 0 0 0 0
897 759 672 700 710 660 566 451 355 279 251 269 127 27 248 210 0 0 0 0 0 0 0 0 0 0 0 0 0 0 0 0 0 0 0 0 0 0 0 0 0 0
878 766 669 700 655 601 510 411 338 331 371 323 148 0 244 222 0 0 0 0 0 0 0 0 0 0 0 0 0 0 0 0 0 0 0 0 0 0 0 0 0 0
891 816 694 620 610 524 426 348 355 391 396 297 166 0 63 0 0 0 0 0 0 0 0 0 0 0 0 0 0 0 0 0 0 0 0 0 0 0 2 1 0 0
900 754 598 570 521 430 371 356 400 407 340 283 1 1 0 32 0 0 0 0 0 0 0 0 0 0 0 0 0 0 0 0 0 0 0 0 0 0 2 4 0 1
735 669 557 505 443 399 367 361 410 408 329 263 1 2 1 0 0 0 0 0 0 0 0 0 0 0 0 0 0 0 0 0 0 0 0 0 0 0 0 2 6 4
804 643 541 471 430 414 298 326 383 383 309 247 0 1 0 1 0 0 0 0 0 0 0 0 0 0 0 0 0 0 0 0 0 0 0 0 0 0 0 0 0 1
737 713 651 564 453 327 321 360 428 373 293 260 0 60 150 0 0 0 0 0 0 0 0 0 0 0 0 0 0 0 0 0 0 0 0 0 0 0 0 0 0 0
759 713 728 675 526 372 237 332 424 363 308 291 240 182 128 0 0 0 0 0 0 0 0 0 0 0 0 0 0 0 0 0 0 0 0 0 0 0 0 0 0 0
789 715 675 635 562 414 258 271 364 377 357 297 230 200 160 0 0 0 0 0 0 0 0 0 0 0 0 0 0 0 0 0 0 0 0 0 0 0 0 0 0 0
619 623 653 668 560 405 233 251 338 431 408 345 248 227 206 160 158 131 41 131 20 0 21 28 1 0 0 0 0 0 0 0 0 0 0 0 0 0 0 0 0 0
518 642 645 668 531 356 210 140 276 395 434 316 229 231 244 218 206 201 176 146 70 0 3 11 4 0 0 0 0 0 0 0 0 0 0 0 0 0 0 0 0 0
387 550 635 598 518 321 11 90 312 416 346 225 198 228 253 247 232 216 168 140 39 0 12 58 68 40 10 0 0 0 0 0 0 0 0 0 0 0 0 0 0 0
394 531 620 596 551 132 35 280 323 288 222 182 188 234 244 242 215 178 158 58 0 6 57 102 76 23 3 0 0 0 0 0 0 0 0 0 0 0 0 0 0 0
417 423 499 546 513 331 112 324 260 202 167 153 176 200 221 206 183 146 140 48 0 32 103 115 49 15 0 0 0 0 0 0 0 0 0 0 0 0 0 0 0 0
480 320 291 294 266 28 30 216 210 183 130 6 141 179 116 24 0 0 0 7 36 109 151 105 24 3 0 0 0 0 0 0 0 0 0 0 0 0 0 0 0 0

ECMWFNIL_con_mucape_144.txt.gz
CAPE
871 1080 1001 1052 820 837 933 871 866 698 463 374 401 290 185 92 29 35 9 8 5 0 0 0 0 0 0 0 0 0 0 0 0 0 0 0 0 0 0 0 0 0
1093 1154 1040 820 817 820 839 772 761 598 458 382 380 284 131 51 30 11 7 3 1 0 0 0 0 0 0 0 0 0 0 0 0 0 0 0 0 0 0 0 0 0
749 995 920 938 777 644 754 804 704 608 526 327 248 173 56 19 10 8 5 1 0 0 0 0 0 0 0 0 0 0 0 0 0 0 0 0 0 0 0 0 0 0
855 762 802 834 802 822 704 677 562 548 556 350 244 93 142 6 10 6 2 0 0 0 0 0 0 0 0 0 0 0 0 0 0 0 0 0 0 0 0 0 0 0
886 932 872 867 787 783 701 630 593 504 477 274 232 64 5 7 8 4 1 0 0 0 0 0 0 0 0 0 0 0 0 0 0 0 0 0 0 0 0 0 0 0
846 893 884 899 798 782 682 633 575 473 346 264 272 204 208 6 4 1 0 0 0 0 0 0 0 0 0 0 0 0 0 0 0 0 0 0 0 0 0 0 0 0
969 992 784 710 781 738 681 604 606 458 380 314 257 147 5 4 2 0 0 0 0 0 0 0 0 0 0 0 0 0 0 0 0 0 0 0 0 0 0 0 0 0
1120 987 711 782 802 697 571 456 532 490 396 243 219 22 7 4 1 0 0 0 0 0 0 0 0 0 0 0 0 0 0 0 0 0 0 0 0 0 0 0 0 0
1092 738 700 1004 781 693 576 519 500 465 336 216 124 16 4 3 0 0 0 0 0 0 0 0 0 0 0 0 0 0 0 0 0 0 0 0 0 0 0 0 0 0
899 697 991 967 765 723 599 503 526 431 264 220 96 26 3 6 0 0 0 0 0 0 0 0 0 0 0 0 0 0 0 0 0 0 0 0 0 0 0 0 0 0
803 1015 1029 904 772 640 581 531 470 374 257 142 63 15 7 5 0 0 0 0 0 0 0 0 0 0 0 0 0 0 0 0 0 0 0 0 0 0 0 0 0 0
989 964 897 832 743 729 578 520 431 354 285 68 28 6 6 3 0 0 0 0 0 0 0 0 0 0 0 0 0 0 0 0 0 0 0 0 0 0 0 0 0 0
909 791 852 813 690 693 576 514 443 338 263 139 1 0 5 2 0 0 0 0 0 0 0 0 0 0 0 0 0 0 0 0 0 0 0 0 0 0 0 0 0 0
716 806 836 831 761 644 581 498 420 332 230 214 214 0 0 1 0 0 0 0 0 0 0 0 0 0 0 0 0 0 0 0 0 0 0 0 0 0 0 0 0 0
973 846 876 771 647 624 521 492 424 321 244 291 249 0 0 0 2 0 0 0 0 0 0 0 0 0 0 0 0 0 0 0 0 0 0 0 0 0 0 0 0 0
828 922 868 682 591 621 564 511 403 314 285 333 242 118 1 0 6 1 0 0 0 0 0 0 0 0 0 0 0 0 0 0 0 0 0 0 0 0 0 0 0 0
847 847 780 639 533 536 582 486 365 276 328 330 242 1 0 0 7 4 0 0 0 0 0 0 0 0 0 0 0 0 0 0 0 0 0 0 0 0 0 0 0 0
1018 896 657 685 632 623 512 425 332 256 318 355 168 0 0 1 2 0 0 1 0 0 0 0 0 0 0 0 0 0 0 0 0 0 0 0 0 0 0 0 0 0
1041 906 762 662 634 560 458 384 347 228 321 333 268 1 0 1 1 1 1 0 0 0 0 0 0 0 0 0 0 0 0 0 0 0 0 0 0 0 0 0 0 0
932 806 759 585 555 491 417 362 317 221 273 305 274 0 1 2 2 1 0 0 0 0 0 0 0 0 0 0 0 0 0 0 0 0 0 0 0 0 0 0 0 0
830 804 702 594 519 446 407 328 221 226 265 299 309 172 0 1 6 4 0 0 0 0 0 0 0 0 0 0 0 0 0 0 0 0 0 0 0 0 0 0 0 0
796 740 677 607 534 503 485 382 251 170 220 303 320 191 1 1 2 2 0 0 0 1 0 0 0 0 0 0 0 0 0 0 0 0 0 0 0 0 0 0 0 0
814 769 586 550 572 674 614 484 236 6 82 215 300 293 274 0 0 0 0 0 0 0 0 0 0 0 0 0 0 0 16 2 0 0 0 0 0 0 0 0 0 0
702 714 694 644 480 463 489 509 266 0 58 1 240 335 293 0 1 148 152 145 126 130 129 87 82 0 0 0 0 0 14 2 0 0 0 0 0 0 0 0 0 0
689 642 647 601 410 408 375 286 58 50 36 151 260 272 155 0 1 175 175 166 165 173 127 127 112 0 0 0 0 21 12 0 0 0 0 0 0 0 0 0 0 0
676 506 460 429 418 318 187 133 70 109 165 233 34 106 18 0 0 135 190 188 201 150 148 126 102 0 0 0 26 25 14 0 0 0 0 0 0 0 0 0 0 0